Cook, MN

7:27 AM CST on February 08, 2016 (GMT -0600)
Cook Municipal

Weather History for KCQM - June, 2013

Change the Weather History Date:

Sunday, June 9, 2013

  Actual Average Record
Temperature  
Mean Temperature 55 °F -  
Max Temperature 66 °F 68 °F 87 °F (2012)
Min Temperature 44 °F 44 °F 35 °F (2011)
Degree Days  
Heating Degree Days 10    
Growing Degree Days 5 (Base 50)    
Moisture  
Dew Point 49 °F    
Average Humidity 81    
Maximum Humidity 100    
Minimum Humidity 46    
Precipitation  
Precipitation 0.01 in - - ()
Sea Level Pressure  
Sea Level Pressure 29.95 in    
Wind  
Wind Speed 3 mph (East)    
Max Wind Speed 10 mph    
Max Gust Speed 17 mph    
Visibility 9 miles    
Events Rain    
Averages and records for this station are not official NWS values.
T = Trace of Precipitation, MM = Missing Value Source: NWS Daily Summary

Daily Weather History Graph

Daily Weather History Graph

Search for Another Location

Airport or City:

Trip Planner

Search our weather history database for the weather conditions in past years. The results will help you decide how hot, cold, wet, or windy it might be!

Date:

Astronomy

Jun. 09, 2013 Rise Set
Actual Time 5:12 AM CDT 9:08 PM CDT
Civil Twilight 4:31 AM CDT 9:48 PM CDT
Nautical Twilight 3:36 AM CDT 10:44 PM CDT
Astronomical Twilight 2:08 AM CDT 12:12 AM CDT
Moon 6:14 AM CDT (6/9) 9:49 PM CDT (6/9)
Length of Visible Light 17h 16m
Length of Day
15h 55m
New Moon, 1% of the Moon is Illuminated
Jun 9
New Moon
Jun 16
First Quarter
Jun 23
Full
Jun 29
Last Quarter
Jul 8
New

Hourly Weather History & Observations

Time (CDT) Temp. Windchill Dew Point Humidity Pressure Visibility Wind Dir Wind Speed Gust Speed Precip Events Conditions
12:17 AM 55.4 °F - 46.4 °F 72% 29.98 in 10.0 mi Calm Calm - N/A   Clear
12:36 AM 53.6 °F - 44.6 °F 72% 29.98 in 10.0 mi Calm Calm - N/A   Clear
12:57 AM 53.6 °F - 44.6 °F 72% 29.99 in 10.0 mi Calm Calm - N/A   Clear
1:16 AM 51.8 °F - 44.6 °F 76% 29.99 in 10.0 mi Calm Calm - N/A   Clear
1:36 AM 51.8 °F - 44.6 °F 76% 30.00 in 10.0 mi Calm Calm - N/A   Clear
1:56 AM 53.6 °F - 44.6 °F 72% 30.00 in 10.0 mi ESE 3.5 mph - N/A   Clear
2:16 AM 51.8 °F - 44.6 °F 76% 29.99 in 10.0 mi Calm Calm - N/A   Clear
2:36 AM 51.8 °F - 42.8 °F 71% 29.99 in 10.0 mi East 3.5 mph - N/A   Clear
2:57 AM 50.0 °F - 42.8 °F 76% 29.99 in 10.0 mi Calm Calm - N/A   Clear
3:16 AM 48.2 °F - 42.8 °F 82% 29.99 in 10.0 mi Calm Calm - N/A   Clear
3:36 AM 46.4 °F - 42.8 °F 87% 29.99 in 10.0 mi Calm Calm - N/A   Clear
3:57 AM 46.4 °F - 42.8 °F 87% 29.99 in 10.0 mi Calm Calm - N/A   Clear
4:16 AM 44.6 °F - 42.8 °F 93% 29.99 in 10.0 mi Calm Calm - N/A   Clear
4:36 AM 44.6 °F - 41.0 °F 87% 29.98 in 10.0 mi Calm Calm - N/A   Clear
4:57 AM 46.4 °F 45.2 °F 41.0 °F 81% 29.98 in 10.0 mi ENE 3.5 mph - N/A   Clear
5:17 AM 44.6 °F 43.1 °F 41.0 °F 87% 29.98 in 10.0 mi ENE 3.5 mph - N/A   Clear
5:36 AM 44.6 °F 43.1 °F 41.0 °F 87% 29.98 in 10.0 mi ENE 3.5 mph - N/A   Clear
5:57 AM 46.4 °F 45.2 °F 41.0 °F 81% 29.98 in 10.0 mi ENE 3.5 mph - N/A   Clear
6:17 AM 46.4 °F 45.2 °F 41.0 °F 81% 29.99 in 10.0 mi East 3.5 mph - N/A   Clear
6:36 AM 48.2 °F - 42.8 °F 82% 29.98 in 10.0 mi ENE 3.5 mph - N/A   Clear
6:57 AM 50.0 °F - 42.8 °F 76% 29.99 in 10.0 mi East 3.5 mph - N/A   Clear
7:17 AM 51.8 °F - 44.6 °F 76% 29.99 in 10.0 mi East 3.5 mph - N/A   Clear
7:37 AM 53.6 °F - 44.6 °F 72% 29.98 in 10.0 mi East 3.5 mph - N/A   Clear
7:57 AM 55.4 °F - 44.6 °F 67% 29.98 in 10.0 mi Calm Calm - N/A   Clear
8:16 AM 57.2 °F - 46.4 °F 67% 29.98 in 10.0 mi ESE 4.6 mph - N/A   Clear
8:37 AM 59.0 °F - 46.4 °F 63% 29.98 in 10.0 mi ESE 3.5 mph - N/A   Clear
8:57 AM 60.8 °F - 48.2 °F 63% 29.98 in 10.0 mi SE 5.8 mph - N/A   Clear
9:16 AM 60.8 °F - 48.2 °F 63% 29.98 in 10.0 mi SE 5.8 mph - N/A   Clear
9:37 AM 62.6 °F - 48.2 °F 59% 29.98 in 10.0 mi SE 8.1 mph - N/A   Clear
9:57 AM 64.4 °F - 48.2 °F 56% 29.97 in 10.0 mi ESE 5.8 mph - N/A   Clear
10:16 AM 64.4 °F - 48.2 °F 56% 29.97 in 10.0 mi ESE 8.1 mph - N/A   Clear
10:37 AM 64.4 °F - 46.4 °F 52% 29.97 in 10.0 mi SE 10.4 mph - N/A   Clear
10:57 AM 64.4 °F - 46.4 °F 52% 29.97 in 10.0 mi SE 6.9 mph 17.3 mph N/A   Clear
11:16 AM 66.2 °F - 46.4 °F 49% 29.97 in 10.0 mi East 6.9 mph - N/A   Clear
11:37 AM 66.2 °F - 46.4 °F 49% 29.97 in 10.0 mi ESE 9.2 mph 16.1 mph N/A   Clear
11:56 AM 66.2 °F - 44.6 °F 46% 29.97 in 10.0 mi SE 9.2 mph 16.1 mph N/A   Clear
12:16 PM 64.4 °F - 44.6 °F 49% 29.98 in 10.0 mi SE 5.8 mph - N/A   Clear
12:37 PM 64.4 °F - 46.4 °F 52% 29.98 in 10.0 mi SE 6.9 mph - N/A   Clear
12:56 PM 64.4 °F - 46.4 °F 52% 29.98 in 10.0 mi SE 8.1 mph - N/A   Scattered Clouds
1:16 PM 62.6 °F - 46.4 °F 55% 29.99 in 10.0 mi SSE 9.2 mph - N/A Rain Light Rain
1:37 PM 60.8 °F - 50.0 °F 68% 30.00 in 10.0 mi SE 9.2 mph 16.1 mph N/A Rain Light Rain
1:56 PM 59.0 °F - 51.8 °F 77% 30.00 in 10.0 mi SE 6.9 mph - N/A Rain Light Rain
2:17 PM 57.2 °F - 53.6 °F 88% 29.99 in 7.0 mi ESE 4.6 mph - N/A Rain Light Rain
2:37 PM 57.2 °F - 53.6 °F 88% 29.99 in 5.0 mi East 5.8 mph - N/A Rain Light Rain
2:56 PM 57.2 °F - 53.6 °F 88% 29.98 in 7.0 mi East 6.9 mph - N/A Rain Light Rain
3:17 PM 55.4 °F - 53.6 °F 94% 29.97 in 10.0 mi East 6.9 mph - N/A Rain Light Rain
3:36 PM 55.4 °F - 53.6 °F 94% 29.97 in 7.0 mi East 5.8 mph - N/A Rain Light Rain
3:57 PM 55.4 °F - 53.6 °F 94% 29.96 in 7.0 mi East 4.6 mph - N/A Rain Light Rain
4:16 PM 55.4 °F - 53.6 °F 94% 29.95 in 7.0 mi East 5.8 mph - N/A Rain Rain
4:37 PM 55.4 °F - 53.6 °F 94% 29.95 in 10.0 mi East 6.9 mph - N/A Rain Rain
4:56 PM 55.4 °F - 53.6 °F 94% 29.93 in 10.0 mi East 5.8 mph - N/A Rain Light Rain
5:17 PM 55.4 °F - 53.6 °F 94% 29.93 in 5.0 mi East 4.6 mph - N/A Rain Light Rain
5:36 PM 55.4 °F - 53.6 °F 94% 29.92 in 7.0 mi ENE 5.8 mph - N/A   Drizzle
5:57 PM 55.4 °F - 53.6 °F 94% 29.92 in 5.0 mi ENE 4.6 mph - N/A Rain Rain
6:16 PM 55.4 °F - 53.6 °F 94% 29.91 in 7.0 mi ENE 8.1 mph - N/A Rain Rain
6:37 PM 53.6 °F - 53.6 °F 100% 29.91 in 5.0 mi East 4.6 mph - N/A   Drizzle
6:57 PM 53.6 °F - 53.6 °F 100% 29.90 in 5.0 mi East 4.6 mph - N/A Rain Rain
7:16 PM 53.6 °F - 53.6 °F 100% 29.90 in 5.0 mi East 4.6 mph - N/A Rain Light Rain
7:37 PM 53.6 °F - 53.6 °F 100% 29.90 in 5.0 mi Calm Calm - N/A   Drizzle
7:57 PM 53.6 °F - 53.6 °F 100% 29.90 in 3.0 mi Calm Calm - N/A   Heavy Drizzle
8:16 PM 53.6 °F - 53.6 °F 100% 29.88 in 10.0 mi East 4.6 mph - 0.01 in Rain Rain
8:37 PM 53.6 °F - 53.6 °F 100% 29.88 in 10.0 mi Calm Calm - 0.01 in   Overcast
8:56 PM 53.6 °F - 53.6 °F 100% 29.89 in 10.0 mi Calm Calm - N/A   Overcast
9:17 PM 53.6 °F - 53.6 °F 100% 29.88 in 10.0 mi Calm Calm - N/A   Drizzle
9:36 PM 53.6 °F - 53.6 °F 100% 29.89 in 7.0 mi Calm Calm - N/A   Overcast
9:56 PM 53.6 °F - 53.6 °F 100% 29.88 in 7.0 mi Calm Calm - N/A   Overcast
10:17 PM 53.6 °F - 53.6 °F 100% 29.88 in 5.0 mi Calm Calm - N/A   Light Drizzle
10:36 PM 53.6 °F - 53.6 °F 100% 29.88 in 7.0 mi Calm Calm - N/A   Light Drizzle
10:57 PM 53.6 °F - 53.6 °F 100% 29.87 in 7.0 mi Calm Calm - N/A   Overcast
11:17 PM 53.6 °F - 53.6 °F 100% 29.87 in 7.0 mi Calm Calm - N/A   Overcast
11:36 PM 53.6 °F - 53.6 °F 100% 29.87 in 10.0 mi Calm Calm - N/A   Overcast
11:57 PM 53.6 °F - 53.6 °F 100% 29.87 in 7.0 mi Calm Calm - N/A   Overcast